SCP
0 0 0 0 0 0 0 0 0 -0 0 0 0 0 0 0 0 0 0 0 0 0 0 0 0 0 0 0 0 0 0 0 0 0 0 0 0 0 0 0 0 0 0 0 0 0 0 0 0 0 0 0 0 0
0 0 0 0 0 0 0 0 0 0 0 0 0 0 0 0 0 0 0 0 0 0 0 0 0 0 0 0 0 0 0 0 0 0 0 0 0 0 0 0 0 -0 0 0 0 0 0 0 0 0 0 0 0 0
0 0 0 0 0 0 0 0 0 0 0 0 0 0 0 0 0 0 0 0 0 0 0 0 0 0 0 0 0 0 0 0 0 0 0 0 0 0 0 0 0 0 0 0 0 0 0 0 0 0 0 0 0 0
0 0 0 0 0 0 0 0 0 0 0 0 0 0 0 0 0 0 0 0 0 0 0 0 0 0 0 0 0 0 0 0 0 0 0 0 0 0 0 0 0 0 0 0 0 0 0 0 0 0 0 0 0 -0
-0 0 0 0 0 0 0 0 0 0 0 0 0 0 0 0 0 0 0 0 0 0 0 0 0 0 0 0 0 0 0 0 0 0 0 0 0 0 0 0 0 0 0 0 0 -0 0 0 0 0 0 0 0 0
0 0 0 0 0 0 0 0 0 0 0 0 0 0 0 0 0 0 0 0 0 0 0 0 0 0 0 0 0 0 0 0 0 0 0 0 0 0 -0 0 0 -0 -0 -0 0 0 0 -0 0 0 -0 0 0 0
-0 0 0 0 0 0 0 0 0 0 0 0 0 0 0 0 0 0 0 0 0 0 0 0 0 0 0 0 0 0 0 0 0 0 0 0 0 0 0 0 0 -0 -0 0 -0 -0 -0 0 0 -0 -0 -0 0 0
0 0 0 0 0 0 0 0 0 0 0 0 0 0 0 0 0 0 0 0 0 0 0 0 0 0 0 0 0 0 0 0 0 0 0 0 0 0 -0 0 0 0 -0 0 0 0 -0 -0 0 -0 -0 -0 0 0
-0 0 0 0 0 0 0 0 0 0 0 0 0 0 0 0 0 0 0 0 0 0 0 0 0 0 0 0 0 0 0 0 0 0 0 0 0 0 0 0 0 0 0 0 0 0 -0 -0 0 0 0 -0 -0 0
0 0 0 0 0 0 0 0 0 0 0 0 0 0 0 0 0 0 0 0 0 0 0 0 0 0 0 0 0 0 0 0 0 0 0 0 0 0 0 0 0 0 0 0 0 0 0 0 0 0 0 -0 -0 0
0 0 0 0 0 0 0 0 0 0 0 0 0 0 0 0 0 0 0 0 0 0 0 0 0 0 0 0 0 0 0 0 0 0 0 0 0 0 0 0 0 0 0 0 -0 -0 -0 0 0 0 -0 -0 -0 -0
0 0 0 0 0 0 0 0 0 0 0 0 0 0 0 0 0 0 0 0 0 0 0 0 0 0 0 0 0 0 0 0 0 0 0 0 0 0 0 0 0 0 -0 -0 -0 -0 -0 0 0 -0 -0 -0 -0 -0
0 0 0 0 0 0 0 0 0 0 0 0 0 0 0 0 0 0 0 0 0 0 0 0 0 0 0 0 0 0 0 0 0 0 0 0 0 0 -0 -0 -0 -0 -0 -0 -0 -0 -0 -0 0 -0 -0 -0 -0 0
0 0 0 0 0 0 0 0 0 0 0 0 0 0 0 0 0 0 0 0 0 0 0 0 0 0 0 0 0 0 0 0 0 0 0 0 0 0 -0 -0 -0 -0 -0 -0 -0 -0 -0 -0 0 -0 -0 -0 -0 -0
0 0 0 0 0 0 0 0 0 0 0 0 0 0 0 0 0 0 0 0 0 0 0 0 0 0 0 0 0 0 0 0 0 0 0 0 0 -0 -0 -0 -0 -0 -0 -0 -0 -0 -0 -0 -0 -0 -0 -0 -0 -0
0 0 0 0 0 0 0 0 0 0 0 0 0 0 0 0 0 0 0 0 0 0 0 0 0 0 0 0 0 0 0 0 0 0 0 0 -0 -0 -0 -0 -0 -0 -0 -0 -0 -0 -0 -0 -0 -0 -0 -0 0 0
0 0 0 0 -0 -0 -0 0 0 0 0 0 0 0 0 0 0 0 0 0 0 0 0 0 0 0 0 0 0 0 0 0 0 0 0 -0 -0 -0 -0 -0 -0 -0 -0 -0 -0 -0 -0 -0 -0 -0 -0 -0 0 0
0 0 -0 0 0 0 0 0 0 0 0 0 -0 -0 0 0 0 0 0 0 0 0 0 0 0 0 0 0 0 0 0 0 0 0 0 -0 -0 -0 -0 -0 -0 -0 -0 -0 -0 -0 -0 -0 -0 -0 -0 0 0 0
0 0 0 0 0 0 0 0 0 0 0 0 0 0 0 0 0 0 0 0 0 0 0 0 0 0 0 0 0 0 0 0 0 0 0 0 -0 -0 -0 -0 -0 -0 -0 -0 -0 -0 -0 -0 -0 0 0 0 0 0
0 -0 0 0 0 0 0 0 0 0 0 0 0 0 0 0 0 0 0 0 0 0 0 0 0 0 0 0 0 0 0 0 0 0 0 0 0 0 -0 -0 -0 -0 -0 -0 -0 -0 -0 0 0 0 0 0 0 0
0 0 0 0 0 0 0 0 0 0 0 0 0 0 0 0 0 0 0 0 0 0 0 0 0 0 0 0 0 0 0 0 0 0 0 0 0 0 0 -0 -0 -0 -0 -0 -0 -0 0 0 0 0 0 0 0 0
0 0 0 0 0 0 0 0 0 0 0 0 0 0 0 0 -0 -0 0 0 0 0 0 0 0 0 0 0 0 0 0 0 0 0 0 0 0 0 -0 -0 -0 -0 -0 -0 -0 0 0 0 0 0 0 0 0 0
0 0 0 0 0 0 0 0 0 0 0 0 0 0 0 0 0 0 0 0 0 0 0 0 0 0 0 0 0 0 0 0 0 0 0 0 0 0 0 0 -0 0 0 0 0 0 0 0 0 0 0 0 0 0
0 0 0 0 0 0 0 0 0 0 0 0 0 0 0 0 0 0 0 0 0 0 0 0 0 0 0 0 0 0 0 0 0 0 0 0 0 0 0 0 0 0 0 0 0 0 0 0 0 0 0 0 0 0
0 0 0 0 0 0 0 0 0 0 0 0 0 0 0 0 0 0 0 0 0 0 0 -0 0 0 0 -0 0 0 0 0 -0 -0 -0 0 0 0 0 0 0 0 0 0 0 0 0 0 0 0 0 0 0 0
0 0 0 0 0 0 0 0 0 0 0 0 0 0 0 0 0 0 0 0 -0 -0 -0 -0 0 0 -0 0 0 -0 -0 -0 -0 -0 -0 -0 -0 -0 -0 0 0 0 0 0 0 0 0 0 0 0 0 0 0 0
0 0 0 0 0 0 0 0 0 0 0 0 0 0 0 0 0 0 0 0 -0 -0 0 0 0 -0 -0 -0 0 0 0 -0 -0 -0 -0 0 0 0 -0 -0 0 0 0 0 0 0 0 0 0 0 0 0 0 0
0 0 0 0 0 0 0 0 0 0 0 0 0 0 0 0 0 0 -0 0 0 0 0 -0 -0 -0 -0 -0 0 0 -0 -0 -0 -0 0 0 0 0 0 0 0 0 0 0 0 0 0 0 0 0 0 0 0 0
0 0 0 0 0 0 0 0 0 0 0 0 0 0 0 0 0 0 0 0 0 0 -0 -0 -0 -0 -0 -0 0 -0 -0 -0 -0 -0 0 0 0 0 0 0 0 0 0 0 0 0 0 0 0 0 0 0 -0 -0
0 0 0 0 0 0 0 0 0 0 0 0 0 0 0 0 0 0 0 -0 -0 -0 -0 -0 -0 -0 -0 0 0 -0 -0 -0 0 0 0 0 0 0 0 0 0 0 0 0 0 0 0 -0 -0 0 -0 -0 -0 0
0 0 0 0 0 0 0 0 0 0 0 0 0 0 0 0 0 -0 -0 -0 -0 -0 -0 -0 -0 -0 -0 0 0 -0 -0 -0 0 0 0 0 0 0 0 0 0 0 0 0 0 0 0 0 -0 -0 -0 -0 0 0
0 0 0 0 0 0 0 0 0 0 0 0 0 0 0 -0 -0 -0 -0 -0 -0 -0 -0 -0 -0 -0 0 0 -0 0 0 0 0 0 0 0 0 0 0 0 0 0 0 0 0 0 -0 -0 -0 -0 -0 0 -0 -0
0 0 0 0 0 0 0 0 0 0 0 0 -0 -0 -0 -0 -0 -0 -0 -0 -0 -0 -0 -0 -0 0 0 0 -0 0 0 0 0 0 0 0 0 0 0 0 0 0 0 0 0 -0 -0 -0 -0 -0 0 -0 -0 -0
Wind_Speed_500mb
56 60 59 55 55 57 48 43 39 34 39 39 32 20 12 10 11 28 28 25 18 16 8 11 8 7 11 6 4 9 2 2 3 3 3 5 3 7 1 6 9 10 9 5 4 2 13 16 8 9 11 15 19 19
57 57 58 58 56 54 51 48 44 37 42 35 36 30 20 13 10 10 26 32 30 16 6 12 14 13 13 8 4 10 4 5 9 3 2 2 4 1 5 5 2 4 9 8 17 12 8 14 28 37 51 56 54 45
55 57 56 58 59 54 50 47 42 40 36 47 37 42 27 22 15 10 10 15 23 26 20 23 21 30 29 33 25 11 8 12 6 5 5 4 8 3 4 9 3 6 8 6 2 6 18 39 55 56 51 54 54 34
62 52 57 58 55 52 51 46 49 45 37 29 28 25 28 26 23 15 11 12 16 10 6 6 12 10 12 19 39 45 34 17 11 8 5 4 3 8 5 6 6 9 15 6 12 28 48 28 24 54 42 29 35 46
64 45 57 54 56 59 57 50 51 51 43 37 30 23 19 35 34 21 17 14 15 8 8 5 10 16 17 18 26 25 29 30 18 10 4 4 5 4 6 4 6 9 10 8 9 17 22 41 67 55 62 70 72 69
58 46 52 57 57 75 63 57 65 55 45 36 29 25 23 21 35 35 12 25 29 22 3 1 5 2 5 2 6 14 20 20 11 8 7 7 8 5 3 7 16 23 25 29 33 65 79 85 80 66 51 70 64 61
65 50 53 61 60 53 60 67 59 48 38 29 25 24 26 32 31 31 8 6 27 30 6 2 3 4 2 9 6 7 14 10 7 4 7 4 4 9 4 7 11 53 70 74 63 51 52 42 61 85 76 71 61 59
59 63 53 76 59 65 63 60 51 40 28 24 20 17 20 28 26 29 22 10 26 14 5 5 6 3 6 5 5 5 6 8 8 5 3 6 5 7 5 26 58 62 70 44 46 65 54 54 57 51 47 44 46 45
48 63 65 67 62 72 66 48 37 30 30 29 19 16 21 32 14 28 35 28 23 5 9 6 8 7 13 6 5 5 6 3 3 3 5 6 2 6 6 34 50 56 47 61 72 60 48 55 59 59 56 51 53 53
54 58 69 65 66 50 42 41 39 36 31 27 36 20 14 16 20 49 27 30 17 14 11 6 11 6 17 12 9 6 4 3 1 7 6 4 5 2 24 35 41 45 48 50 64 82 85 79 70 71 67 62 58 58
50 83 72 65 61 57 52 51 46 39 33 33 18 11 25 56 45 12 10 8 9 6 13 11 31 9 20 6 7 11 5 4 1 7 6 3 3 8 32 43 47 51 52 51 48 49 49 53 61 66 69 65 64 56
81 79 75 68 62 54 50 49 50 45 30 24 19 32 38 10 6 8 5 3 5 11 15 14 14 10 13 9 8 6 4 1 8 2 5 4 7 9 33 45 55 60 63 64 63 63 61 58 54 54 56 56 58 56
80 74 67 58 51 50 48 47 46 40 39 38 14 13 10 5 5 12 13 6 2 13 21 16 6 13 10 8 7 6 8 8 5 2 7 8 13 8 28 44 59 66 71 75 76 73 68 63 54 50 51 50 53 54
56 53 51 49 48 48 46 44 43 44 51 9 12 10 8 3 8 8 9 10 12 18 36 34 13 9 8 7 4 8 5 6 3 2 10 6 10 20 34 54 72 80 83 82 82 81 73 65 58 48 46 48 51 48
47 44 44 44 44 46 45 45 50 52 14 8 9 9 6 7 4 3 14 10 12 20 47 22 12 8 4 5 4 6 4 8 10 9 6 9 24 24 38 53 65 76 84 88 81 78 73 63 54 47 43 43 40 36
41 40 42 45 47 49 45 47 61 47 8 7 7 9 7 7 5 10 16 17 24 37 24 10 6 7 5 6 8 15 11 11 7 7 8 20 35 36 47 59 65 72 78 86 81 72 67 58 49 42 38 36 33 30
43 20 30 30 38 52 51 44 45 10 11 9 4 9 16 10 24 22 17 23 38 28 4 9 8 17 4 2 6 8 11 8 11 14 36 52 55 55 54 64 78 83 83 82 85 69 61 50 41 34 29 28 26 24
20 25 36 48 67 76 59 17 11 7 6 7 8 21 21 11 18 29 22 39 27 10 7 4 9 4 8 9 8 8 25 32 43 55 62 62 59 60 60 66 76 78 78 74 80 67 55 44 36 28 21 20 20 14
30 41 47 44 33 21 11 8 5 7 5 9 9 20 18 7 19 36 39 37 27 25 11 13 6 6 8 20 26 56 64 70 75 73 64 65 69 69 71 71 70 74 74 70 73 59 47 38 29 24 17 12 11 8
31 29 46 31 12 9 9 9 8 8 7 10 11 14 10 8 16 25 29 35 39 16 7 4 10 33 48 65 72 73 73 74 74 68 73 83 70 66 75 77 72 69 72 66 62 50 39 31 24 19 12 5 2 5
36 38 30 20 15 13 10 8 7 7 9 5 5 5 2 9 12 18 23 30 22 14 10 53 73 86 88 89 87 86 88 89 90 88 86 74 81 80 80 77 72 69 65 60 53 40 33 26 19 12 9 8 6 6
32 39 32 19 6 7 7 8 10 15 7 7 10 7 2 4 8 12 20 22 17 43 51 69 75 86 88 87 91 89 88 88 88 89 91 87 82 77 71 71 67 64 57 52 41 32 28 22 18 14 12 14 17 19
44 32 16 9 5 5 5 20 5 10 6 6 7 2 5 7 8 16 11 18 27 59 62 67 72 73 75 75 77 78 79 77 77 78 75 71 72 71 70 69 59 52 47 38 31 28 27 24 20 19 20 24 25 27
34 10 8 7 6 6 15 6 7 7 6 5 6 5 7 12 13 6 8 15 52 53 57 60 56 58 60 64 65 63 64 65 70 70 68 64 65 64 56 49 44 41 34 28 30 30 30 27 27 28 30 31 32 32
12 10 8 2 8 10 6 4 2 4 8 7 6 8 6 11 6 7 8 30 53 56 53 51 52 49 46 45 52 66 67 55 49 49 46 45 45 43 39 36 31 28 29 33 36 37 37 36 36 37 38 36 36 36
9 19 18 19 9 12 11 11 12 14 7 7 12 4 7 5 3 13 8 29 39 44 42 38 33 29 35 42 55 58 47 35 33 37 34 28 28 30 28 27 29 31 31 32 37 43 43 43 44 45 44 40 39 43
15 15 15 17 17 20 8 7 10 7 11 13 7 7 6 8 13 9 32 44 39 31 28 29 30 34 39 45 43 35 28 24 23 22 21 21 22 22 23 23 26 23 32 35 38 40 48 51 52 50 50 50 47 45
17 42 21 30 15 16 11 7 12 16 10 14 18 10 16 19 14 26 30 29 30 37 34 32 32 33 34 30 25 19 15 12 11 10 10 13 13 15 17 19 22 25 33 36 38 42 48 52 54 55 56 56 54 48
13 24 34 6 7 11 20 15 16 25 20 32 12 10 13 34 45 45 43 39 41 46 43 38 35 32 28 21 14 10 9 8 11 13 10 11 18 21 22 22 28 36 41 46 46 49 51 51 56 59 60 58 56 52
19 46 14 11 15 16 23 28 14 28 37 40 35 30 40 52 49 51 51 53 52 51 44 41 34 28 23 16 10 10 12 15 14 10 7 14 17 26 30 35 41 47 51 55 59 60 58 61 63 61 59 58 55 53
32 28 10 15 11 15 23 33 29 21 22 28 45 47 50 33 52 57 57 56 56 53 46 40 33 25 18 11 12 13 16 16 12 9 8 11 23 36 43 47 51 53 55 57 61 65 67 65 62 61 58 56 54 51
15 17 10 9 6 8 14 16 13 12 12 16 20 24 18 14 15 34 40 43 47 45 36 31 27 16 14 15 17 18 16 12 11 11 13 21 34 40 43 47 50 52 55 61 65 65 62 62 62 60 58 56 53 49
7 7 5 3 3 2 13 12 5 5 9 10 15 12 12 13 17 18 34 39 35 30 26 22 21 19 21 22 21 17 12 15 16 21 31 36 42 47 50 51 54 58 62 65 64 62 60 60 60 57 54 52 50 47
Wind_Direction_500mb
250 247 244 238 240 229 227 226 221 215 212 219 221 207 196 196 206 208 208 206 206 202 217 211 187 164 156 173 155 172 79 180 93 185 221 248 177 238 43 224 181 169 160 191 127 281 295 168 124 121 226 295 295 312
248 244 239 235 233 224 222 225 211 216 212 212 218 219 209 203 199 193 212 208 212 204 221 214 242 217 212 201 196 198 243 176 209 131 222 29 315 255 184 287 41 234 198 181 195 228 293 217 256 288 299 293 291 290
245 240 236 231 222 217 217 220 217 213 221 205 206 215 198 210 204 190 186 188 199 215 234 239 243 242 230 227 224 209 228 222 201 212 180 216 247 157 197 245 239 249 156 244 351 265 245 289 289 299 297 286 303 307
247 228 232 223 221 214 216 211 210 213 202 199 202 207 217 217 209 201 198 194 190 170 158 184 217 243 213 224 226 230 238 252 262 209 226 174 188 187 255 272 197 217 151 218 259 286 292 299 327 326 329 319 314 319
255 228 228 220 215 205 209 208 205 198 199 197 208 211 212 208 198 218 218 212 207 212 193 175 214 251 269 250 230 213 229 237 221 187 169 225 258 296 300 279 259 199 201 190 248 285 258 292 310 310 308 304 307 305
243 231 222 217 222 209 206 205 184 186 197 199 209 225 213 206 210 196 229 231 220 212 235 69 203 299 33 184 141 193 202 219 210 190 189 226 234 253 316 280 267 269 277 293 294 302 303 298 303 310 314 314 312 307
238 234 207 217 214 211 197 185 172 183 189 201 218 217 205 197 216 189 203 258 202 194 222 18 325 196 132 103 98 166 200 213 217 226 231 216 214 192 214 229 328 335 328 318 320 330 320 310 307 306 305 305 307 301
234 234 229 205 211 191 185 180 178 183 190 197 194 194 193 194 224 218 203 156 161 171 159 106 274 221 158 140 139 155 149 186 209 256 251 198 202 229 271 332 339 338 333 333 317 324 317 319 320 326 325 321 313 309
241 232 207 195 183 178 169 170 178 184 177 176 171 183 176 199 210 190 189 174 173 173 175 152 151 218 161 148 147 139 179 185 215 196 245 171 253 224 278 328 343 348 340 327 332 340 334 337 334 339 341 332 318 311
218 199 176 173 168 167 176 175 173 170 168 166 177 177 183 186 183 156 151 171 196 207 213 207 172 172 167 165 166 141 173 210 207 242 184 111 247 8 351 359 354 351 352 349 344 345 343 340 338 334 333 333 326 313
226 173 168 167 168 173 175 175 176 169 172 180 186 144 145 153 161 172 141 144 154 210 211 219 192 154 188 129 200 200 183 179 190 257 157 208 265 257 357 6 6 2 4 5 356 348 341 332 329 327 328 330 325 318
169 164 163 168 174 177 177 178 175 181 177 180 156 135 149 155 132 135 157 138 144 216 187 171 190 177 147 163 105 164 167 245 245 143 82 270 240 329 4 6 9 7 5 4 3 357 351 347 340 332 328 325 328 325
152 157 164 168 168 167 171 175 179 185 182 146 147 142 158 156 71 169 187 256 188 182 176 163 133 150 137 161 89 163 195 229 133 102 227 217 207 316 360 4 7 9 6 3 360 357 352 348 346 343 339 337 336 335
152 160 166 166 169 173 175 175 182 180 173 167 142 143 164 251 248 184 182 185 197 187 167 150 120 144 132 140 164 181 206 100 74 223 231 223 299 323 353 7 7 3 1 359 356 352 349 346 346 346 342 343 342 346
160 162 169 174 177 179 177 181 185 176 165 149 169 179 179 193 205 234 205 183 176 170 156 120 84 108 136 149 205 132 40 246 209 225 214 205 345 345 349 358 0 360 355 353 351 348 345 342 343 346 347 349 350 354
155 160 177 179 187 186 182 177 174 177 122 135 161 92 118 97 171 187 191 175 163 152 130 103 107 65 232 167 171 207 140 221 244 213 235 318 338 350 348 349 350 351 351 345 344 343 339 337 338 342 342 346 355 2
163 165 183 192 211 204 194 185 155 130 128 158 195 161 179 172 177 185 201 172 163 156 129 118 104 213 101 195 256 186 199 224 214 276 316 325 336 334 333 334 333 336 341 340 337 336 333 333 331 332 332 350 357 3
161 157 155 166 139 140 143 134 95 112 142 144 147 173 179 166 172 184 177 166 159 125 102 186 128 162 198 203 258 245 250 271 289 296 300 313 318 318 317 321 322 326 329 332 331 327 325 322 321 325 333 344 353 5
146 163 154 144 122 99 91 85 102 96 99 124 117 150 174 151 171 177 175 177 183 177 172 167 108 197 225 221 235 261 267 271 276 284 296 300 301 303 304 309 314 317 319 324 323 318 312 310 314 311 317 333 340 20
138 134 139 130 122 75 92 92 109 113 155 168 166 164 153 166 186 193 202 215 211 194 196 198 212 228 232 244 252 258 266 275 279 281 284 291 292 292 298 301 304 310 310 315 314 307 297 292 297 298 288 299 16 90
149 156 154 144 93 61 75 103 97 104 128 98 138 158 247 239 228 211 203 200 182 209 222 230 239 250 258 260 265 269 271 272 271 272 275 278 286 290 292 295 299 300 301 305 301 291 282 275 274 271 248 216 185 152
157 167 157 151 95 113 100 140 134 125 122 118 137 185 244 248 225 214 191 186 220 232 233 248 254 261 265 269 271 271 272 271 274 277 277 279 281 282 286 288 289 291 292 291 282 271 262 254 243 227 206 174 149 138
162 162 143 135 135 122 100 145 117 152 111 185 153 101 257 228 213 183 216 222 236 251 257 262 269 271 272 275 276 277 277 278 276 275 273 274 277 278 279 279 280 281 279 272 257 245 235 226 211 196 182 162 149 140
176 163 125 129 129 137 137 135 139 133 126 110 117 233 252 218 177 212 239 246 256 264 270 278 287 282 277 275 278 285 284 281 278 275 271 269 269 269 271 272 271 267 258 240 231 219 208 195 181 172 166 157 149 144
144 187 184 122 146 109 92 76 30 99 210 189 136 282 259 168 174 239 231 271 278 280 283 285 284 282 279 285 292 285 287 290 287 279 269 261 259 260 259 258 252 235 225 217 205 197 185 177 171 165 161 155 149 144
184 196 183 185 177 153 178 156 193 201 154 176 225 240 161 117 182 244 230 273 284 285 287 285 283 279 276 280 288 292 297 286 272 269 271 262 253 249 244 230 219 211 206 201 199 186 177 172 166 163 152 147 148 145
174 212 196 190 173 148 122 131 149 137 171 196 208 142 128 192 234 247 260 268 273 279 279 276 280 285 287 290 291 292 289 286 272 265 260 253 240 226 219 221 213 201 190 184 186 185 175 166 161 153 146 146 143 141
202 179 171 180 178 173 144 166 165 191 206 191 133 176 188 200 223 255 268 272 278 289 287 289 292 294 295 297 298 288 282 270 254 244 226 211 198 193 187 182 186 185 173 169 170 169 167 160 153 148 143 140 139 136
174 161 145 123 138 189 205 183 202 211 199 178 179 215 234 249 263 267 272 275 284 287 289 294 296 301 302 304 284 247 241 209 195 180 189 187 168 164 166 173 168 161 157 153 157 160 156 151 147 143 141 139 136 133
176 162 124 161 167 209 208 198 212 214 212 219 235 247 256 260 262 266 272 280 284 287 287 287 291 294 294 287 263 228 203 180 181 193 209 202 182 166 160 161 156 151 150 152 151 148 149 147 144 143 141 138 135 132
163 173 131 175 213 204 207 212 223 222 228 241 246 249 257 270 273 277 278 279 276 274 276 280 282 281 270 247 213 199 182 184 194 205 212 197 179 163 158 157 156 154 153 151 149 147 146 143 144 142 139 136 134 132
169 187 155 191 232 209 195 201 203 209 240 247 250 246 256 255 257 280 268 272 269 272 273 270 264 252 219 197 184 175 172 178 176 175 170 165 164 157 154 152 150 149 149 148 145 143 145 145 143 142 139 136 133 132
134 145 138 111 94 188 182 178 190 293 249 258 253 251 238 238 240 261 264 259 253 249 239 227 214 196 182 174 170 167 164 158 146 147 145 152 152 149 147 145 145 146 147 144 142 144 147 145 142 139 137 136 135 133
Wind_Speed_850mb
56 60 59 55 55 57 48 43 39 34 39 39 32 20 12 10 11 28 28 25 18 16 8 11 8 7 11 6 4 9 2 2 3 3 3 5 3 7 1 6 9 10 9 5 4 2 13 16 8 9 11 15 19 19
57 57 58 58 56 54 51 48 44 37 42 35 36 30 20 13 10 10 26 32 30 16 6 12 14 13 13 8 4 10 4 5 9 3 2 2 4 1 5 5 2 4 9 8 17 12 8 14 28 37 51 56 54 45
55 57 56 58 59 54 50 47 42 40 36 47 37 42 27 22 15 10 10 15 23 26 20 23 21 30 29 33 25 11 8 12 6 5 5 4 8 3 4 9 3 6 8 6 2 6 18 39 55 56 51 54 54 34
62 52 57 58 55 52 51 46 49 45 37 29 28 25 28 26 23 15 11 12 16 10 6 6 12 10 12 19 39 45 34 17 11 8 5 4 3 8 5 6 6 9 15 6 12 28 48 28 24 54 42 29 35 46
64 45 57 54 56 59 57 50 51 51 43 37 30 23 19 35 34 21 17 14 15 8 8 5 10 16 17 18 26 25 29 30 18 10 4 4 5 4 6 4 6 9 10 8 9 17 22 41 67 55 62 70 72 69
58 46 52 57 57 75 63 57 65 55 45 36 29 25 23 21 35 35 12 25 29 22 3 1 5 2 5 2 6 14 20 20 11 8 7 7 8 5 3 7 16 23 25 29 33 65 79 85 80 66 51 70 64 61
65 50 53 61 60 53 60 67 59 48 38 29 25 24 26 32 31 31 8 6 27 30 6 2 3 4 2 9 6 7 14 10 7 4 7 4 4 9 4 7 11 53 70 74 63 51 52 42 61 85 76 71 61 59
59 63 53 76 59 65 63 60 51 40 28 24 20 17 20 28 26 29 22 10 26 14 5 5 6 3 6 5 5 5 6 8 8 5 3 6 5 7 5 26 58 62 70 44 46 65 54 54 57 51 47 44 46 45
48 63 65 67 62 72 66 48 37 30 30 29 19 16 21 32 14 28 35 28 23 5 9 6 8 7 13 6 5 5 6 3 3 3 5 6 2 6 6 34 50 56 47 61 72 60 48 55 59 59 56 51 53 53
54 58 69 65 66 50 42 41 39 36 31 27 36 20 14 16 20 49 27 30 17 14 11 6 11 6 17 12 9 6 4 3 1 7 6 4 5 2 24 35 41 45 48 50 64 82 85 79 70 71 67 62 58 58
50 83 72 65 61 57 52 51 46 39 33 33 18 11 25 56 45 12 10 8 9 6 13 11 31 9 20 6 7 11 5 4 1 7 6 3 3 8 32 43 47 51 52 51 48 49 49 53 61 66 69 65 64 56
81 79 75 68 62 54 50 49 50 45 30 24 19 32 38 10 6 8 5 3 5 11 15 14 14 10 13 9 8 6 4 1 8 2 5 4 7 9 33 45 55 60 63 64 63 63 61 58 54 54 56 56 58 56
80 74 67 58 51 50 48 47 46 40 39 38 14 13 10 5 5 12 13 6 2 13 21 16 6 13 10 8 7 6 8 8 5 2 7 8 13 8 28 44 59 66 71 75 76 73 68 63 54 50 51 50 53 54
56 53 51 49 48 48 46 44 43 44 51 9 12 10 8 3 8 8 9 10 12 18 36 34 13 9 8 7 4 8 5 6 3 2 10 6 10 20 34 54 72 80 83 82 82 81 73 65 58 48 46 48 51 48
47 44 44 44 44 46 45 45 50 52 14 8 9 9 6 7 4 3 14 10 12 20 47 22 12 8 4 5 4 6 4 8 10 9 6 9 24 24 38 53 65 76 84 88 81 78 73 63 54 47 43 43 40 36
41 40 42 45 47 49 45 47 61 47 8 7 7 9 7 7 5 10 16 17 24 37 24 10 6 7 5 6 8 15 11 11 7 7 8 20 35 36 47 59 65 72 78 86 81 72 67 58 49 42 38 36 33 30
43 20 30 30 38 52 51 44 45 10 11 9 4 9 16 10 24 22 17 23 38 28 4 9 8 17 4 2 6 8 11 8 11 14 36 52 55 55 54 64 78 83 83 82 85 69 61 50 41 34 29 28 26 24
20 25 36 48 67 76 59 17 11 7 6 7 8 21 21 11 18 29 22 39 27 10 7 4 9 4 8 9 8 8 25 32 43 55 62 62 59 60 60 66 76 78 78 74 80 67 55 44 36 28 21 20 20 14
30 41 47 44 33 21 11 8 5 7 5 9 9 20 18 7 19 36 39 37 27 25 11 13 6 6 8 20 26 56 64 70 75 73 64 65 69 69 71 71 70 74 74 70 73 59 47 38 29 24 17 12 11 8
31 29 46 31 12 9 9 9 8 8 7 10 11 14 10 8 16 25 29 35 39 16 7 4 10 33 48 65 72 73 73 74 74 68 73 83 70 66 75 77 72 69 72 66 62 50 39 31 24 19 12 5 2 5
36 38 30 20 15 13 10 8 7 7 9 5 5 5 2 9 12 18 23 30 22 14 10 53 73 86 88 89 87 86 88 89 90 88 86 74 81 80 80 77 72 69 65 60 53 40 33 26 19 12 9 8 6 6
32 39 32 19 6 7 7 8 10 15 7 7 10 7 2 4 8 12 20 22 17 43 51 69 75 86 88 87 91 89 88 88 88 89 91 87 82 77 71 71 67 64 57 52 41 32 28 22 18 14 12 14 17 19
44 32 16 9 5 5 5 20 5 10 6 6 7 2 5 7 8 16 11 18 27 59 62 67 72 73 75 75 77 78 79 77 77 78 75 71 72 71 70 69 59 52 47 38 31 28 27 24 20 19 20 24 25 27
34 10 8 7 6 6 15 6 7 7 6 5 6 5 7 12 13 6 8 15 52 53 57 60 56 58 60 64 65 63 64 65 70 70 68 64 65 64 56 49 44 41 34 28 30 30 30 27 27 28 30 31 32 32
12 10 8 2 8 10 6 4 2 4 8 7 6 8 6 11 6 7 8 30 53 56 53 51 52 49 46 45 52 66 67 55 49 49 46 45 45 43 39 36 31 28 29 33 36 37 37 36 36 37 38 36 36 36
9 19 18 19 9 12 11 11 12 14 7 7 12 4 7 5 3 13 8 29 39 44 42 38 33 29 35 42 55 58 47 35 33 37 34 28 28 30 28 27 29 31 31 32 37 43 43 43 44 45 44 40 39 43
15 15 15 17 17 20 8 7 10 7 11 13 7 7 6 8 13 9 32 44 39 31 28 29 30 34 39 45 43 35 28 24 23 22 21 21 22 22 23 23 26 23 32 35 38 40 48 51 52 50 50 50 47 45
17 42 21 30 15 16 11 7 12 16 10 14 18 10 16 19 14 26 30 29 30 37 34 32 32 33 34 30 25 19 15 12 11 10 10 13 13 15 17 19 22 25 33 36 38 42 48 52 54 55 56 56 54 48
13 24 34 6 7 11 20 15 16 25 20 32 12 10 13 34 45 45 43 39 41 46 43 38 35 32 28 21 14 10 9 8 11 13 10 11 18 21 22 22 28 36 41 46 46 49 51 51 56 59 60 58 56 52
19 46 14 11 15 16 23 28 14 28 37 40 35 30 40 52 49 51 51 53 52 51 44 41 34 28 23 16 10 10 12 15 14 10 7 14 17 26 30 35 41 47 51 55 59 60 58 61 63 61 59 58 55 53
32 28 10 15 11 15 23 33 29 21 22 28 45 47 50 33 52 57 57 56 56 53 46 40 33 25 18 11 12 13 16 16 12 9 8 11 23 36 43 47 51 53 55 57 61 65 67 65 62 61 58 56 54 51
15 17 10 9 6 8 14 16 13 12 12 16 20 24 18 14 15 34 40 43 47 45 36 31 27 16 14 15 17 18 16 12 11 11 13 21 34 40 43 47 50 52 55 61 65 65 62 62 62 60 58 56 53 49
7 7 5 3 3 2 13 12 5 5 9 10 15 12 12 13 17 18 34 39 35 30 26 22 21 19 21 22 21 17 12 15 16 21 31 36 42 47 50 51 54 58 62 65 64 62 60 60 60 57 54 52 50 47
Wind_Direction_850mb
250 247 244 238 240 229 227 226 221 215 212 219 221 207 196 196 206 208 208 206 206 202 217 211 187 164 156 173 155 172 79 180 93 185 221 248 177 238 43 224 181 169 160 191 127 281 295 168 124 121 226 295 295 312
248 244 239 235 233 224 222 225 211 216 212 212 218 219 209 203 199 193 212 208 212 204 221 214 242 217 212 201 196 198 243 176 209 131 222 29 315 255 184 287 41 234 198 181 195 228 293 217 256 288 299 293 291 290
245 240 236 231 222 217 217 220 217 213 221 205 206 215 198 210 204 190 186 188 199 215 234 239 243 242 230 227 224 209 228 222 201 212 180 216 247 157 197 245 239 249 156 244 351 265 245 289 289 299 297 286 303 307
247 228 232 223 221 214 216 211 210 213 202 199 202 207 217 217 209 201 198 194 190 170 158 184 217 243 213 224 226 230 238 252 262 209 226 174 188 187 255 272 197 217 151 218 259 286 292 299 327 326 329 319 314 319
255 228 228 220 215 205 209 208 205 198 199 197 208 211 212 208 198 218 218 212 207 212 193 175 214 251 269 250 230 213 229 237 221 187 169 225 258 296 300 279 259 199 201 190 248 285 258 292 310 310 308 304 307 305
243 231 222 217 222 209 206 205 184 186 197 199 209 225 213 206 210 196 229 231 220 212 235 69 203 299 33 184 141 193 202 219 210 190 189 226 234 253 316 280 267 269 277 293 294 302 303 298 303 310 314 314 312 307
238 234 207 217 214 211 197 185 172 183 189 201 218 217 205 197 216 189 203 258 202 194 222 18 325 196 132 103 98 166 200 213 217 226 231 216 214 192 214 229 328 335 328 318 320 330 320 310 307 306 305 305 307 301
234 234 229 205 211 191 185 180 178 183 190 197 194 194 193 194 224 218 203 156 161 171 159 106 274 221 158 140 139 155 149 186 209 256 251 198 202 229 271 332 339 338 333 333 317 324 317 319 320 326 325 321 313 309
241 232 207 195 183 178 169 170 178 184 177 176 171 183 176 199 210 190 189 174 173 173 175 152 151 218 161 148 147 139 179 185 215 196 245 171 253 224 278 328 343 348 340 327 332 340 334 337 334 339 341 332 318 311
218 199 176 173 168 167 176 175 173 170 168 166 177 177 183 186 183 156 151 171 196 207 213 207 172 172 167 165 166 141 173 210 207 242 184 111 247 8 351 359 354 351 352 349 344 345 343 340 338 334 333 333 326 313
226 173 168 167 168 173 175 175 176 169 172 180 186 144 145 153 161 172 141 144 154 210 211 219 192 154 188 129 200 200 183 179 190 257 157 208 265 257 357 6 6 2 4 5 356 348 341 332 329 327 328 330 325 318
169 164 163 168 174 177 177 178 175 181 177 180 156 135 149 155 132 135 157 138 144 216 187 171 190 177 147 163 105 164 167 245 245 143 82 270 240 329 4 6 9 7 5 4 3 357 351 347 340 332 328 325 328 325
152 157 164 168 168 167 171 175 179 185 182 146 147 142 158 156 71 169 187 256 188 182 176 163 133 150 137 161 89 163 195 229 133 102 227 217 207 316 360 4 7 9 6 3 360 357 352 348 346 343 339 337 336 335
152 160 166 166 169 173 175 175 182 180 173 167 142 143 164 251 248 184 182 185 197 187 167 150 120 144 132 140 164 181 206 100 74 223 231 223 299 323 353 7 7 3 1 359 356 352 349 346 346 346 342 343 342 346
160 162 169 174 177 179 177 181 185 176 165 149 169 179 179 193 205 234 205 183 176 170 156 120 84 108 136 149 205 132 40 246 209 225 214 205 345 345 349 358 0 360 355 353 351 348 345 342 343 346 347 349 350 354
155 160 177 179 187 186 182 177 174 177 122 135 161 92 118 97 171 187 191 175 163 152 130 103 107 65 232 167 171 207 140 221 244 213 235 318 338 350 348 349 350 351 351 345 344 343 339 337 338 342 342 346 355 2
163 165 183 192 211 204 194 185 155 130 128 158 195 161 179 172 177 185 201 172 163 156 129 118 104 213 101 195 256 186 199 224 214 276 316 325 336 334 333 334 333 336 341 340 337 336 333 333 331 332 332 350 357 3
161 157 155 166 139 140 143 134 95 112 142 144 147 173 179 166 172 184 177 166 159 125 102 186 128 162 198 203 258 245 250 271 289 296 300 313 318 318 317 321 322 326 329 332 331 327 325 322 321 325 333 344 353 5
146 163 154 144 122 99 91 85 102 96 99 124 117 150 174 151 171 177 175 177 183 177 172 167 108 197 225 221 235 261 267 271 276 284 296 300 301 303 304 309 314 317 319 324 323 318 312 310 314 311 317 333 340 20
138 134 139 130 122 75 92 92 109 113 155 168 166 164 153 166 186 193 202 215 211 194 196 198 212 228 232 244 252 258 266 275 279 281 284 291 292 292 298 301 304 310 310 315 314 307 297 292 297 298 288 299 16 90
149 156 154 144 93 61 75 103 97 104 128 98 138 158 247 239 228 211 203 200 182 209 222 230 239 250 258 260 265 269 271 272 271 272 275 278 286 290 292 295 299 300 301 305 301 291 282 275 274 271 248 216 185 152
157 167 157 151 95 113 100 140 134 125 122 118 137 185 244 248 225 214 191 186 220 232 233 248 254 261 265 269 271 271 272 271 274 277 277 279 281 282 286 288 289 291 292 291 282 271 262 254 243 227 206 174 149 138
162 162 143 135 135 122 100 145 117 152 111 185 153 101 257 228 213 183 216 222 236 251 257 262 269 271 272 275 276 277 277 278 276 275 273 274 277 278 279 279 280 281 279 272 257 245 235 226 211 196 182 162 149 140
176 163 125 129 129 137 137 135 139 133 126 110 117 233 252 218 177 212 239 246 256 264 270 278 287 282 277 275 278 285 284 281 278 275 271 269 269 269 271 272 271 267 258 240 231 219 208 195 181 172 166 157 149 144
144 187 184 122 146 109 92 76 30 99 210 189 136 282 259 168 174 239 231 271 278 280 283 285 284 282 279 285 292 285 287 290 287 279 269 261 259 260 259 258 252 235 225 217 205 197 185 177 171 165 161 155 149 144
184 196 183 185 177 153 178 156 193 201 154 176 225 240 161 117 182 244 230 273 284 285 287 285 283 279 276 280 288 292 297 286 272 269 271 262 253 249 244 230 219 211 206 201 199 186 177 172 166 163 152 147 148 145
174 212 196 190 173 148 122 131 149 137 171 196 208 142 128 192 234 247 260 268 273 279 279 276 280 285 287 290 291 292 289 286 272 265 260 253 240 226 219 221 213 201 190 184 186 185 175 166 161 153 146 146 143 141
202 179 171 180 178 173 144 166 165 191 206 191 133 176 188 200 223 255 268 272 278 289 287 289 292 294 295 297 298 288 282 270 254 244 226 211 198 193 187 182 186 185 173 169 170 169 167 160 153 148 143 140 139 136
174 161 145 123 138 189 205 183 202 211 199 178 179 215 234 249 263 267 272 275 284 287 289 294 296 301 302 304 284 247 241 209 195 180 189 187 168 164 166 173 168 161 157 153 157 160 156 151 147 143 141 139 136 133
176 162 124 161 167 209 208 198 212 214 212 219 235 247 256 260 262 266 272 280 284 287 287 287 291 294 294 287 263 228 203 180 181 193 209 202 182 166 160 161 156 151 150 152 151 148 149 147 144 143 141 138 135 132
163 173 131 175 213 204 207 212 223 222 228 241 246 249 257 270 273 277 278 279 276 274 276 280 282 281 270 247 213 199 182 184 194 205 212 197 179 163 158 157 156 154 153 151 149 147 146 143 144 142 139 136 134 132
169 187 155 191 232 209 195 201 203 209 240 247 250 246 256 255 257 280 268 272 269 272 273 270 264 252 219 197 184 175 172 178 176 175 170 165 164 157 154 152 150 149 149 148 145 143 145 145 143 142 139 136 133 132
134 145 138 111 94 188 182 178 190 293 249 258 253 251 238 238 240 261 264 259 253 249 239 227 214 196 182 174 170 167 164 158 146 147 145 152 152 149 147 145 145 146 147 144 142 144 147 145 142 139 137 136 135 133